Regional Weather Roundup
Issued by NWS

Home | Current Version | Previous Version | Graphics & Text | Print | Product List | Glossary On
Versions: 1 2 3 4 5 6 7 8 9 10 11 12 13 14 15 16 17 18 19 20 21 22 23 24 25 26 27 28 29 30 31 32 33 34 35 36 37 38 39 40 41 42 43 44 45 46 47 48 49 50
000
ASUS43 KLSX 200859
RWRMO

WEATHER SUMMARY FOR MISSOURI
NATIONAL WEATHER SERVICE SPRINGFIELD MO
400 AM CDT SUN APR 20 2014

NOTE: "FAIR" INDICATES FEW OR NO CLOUDS BELOW 12,000 FEET WITH NO
       SIGNIFICANT WEATHER AND/OR OBSTRUCTIONS TO VISIBILITY.
       CURRENT SKY AND/OR WEATHER CONDITIONS ARE NOT AVAILABLE FOR
       CHILLICOTHE AND FARMINGTON.

MOZ001>031-035>038-043-044-053-054-201000-
...NORTHERN AND WESTERN MISSOURI...

CITY           SKY/WX    TMP DP  RH WIND       PRES   REMARKS
KANSAS CTY INT CLOUDY    59  46  62 S13       30.08F
KANSAS C DTWN  PTCLDY    62  46  55 S5        30.09S
LEE`S SUMMIT   PTCLDY    60  44  55 S7        30.11S
ST JOSEPH      PTCLDY    58  45  62 S8        30.07S
KIRKSVILLE     PTCLDY    50  42  74 S9        30.14R

$$
MOZ066>068-077>081-088>096-101>105-201000-
...SOUTHWEST MISSOURI...

CITY           SKY/WX    TMP DP  RH WIND       PRES   REMARKS
SPRINGFIELD    CLOUDY    58  46  64 SE9       30.15S
JOPLIN         CLOUDY    60  48  64 S8        30.14R

$$
MOZ032>034-039>042-045>050-055>058-069>072-201000-
...CENTRAL MISSOURI...

CITY           SKY/WX    TMP DP  RH WIND       PRES   REMARKS
COLUMBIA       PTCLDY    58  41  53 S12       30.16R
JEFFERSON CITY PTCLDY    54  41  61 SE5       30.17R
ROLLA          MOCLDY    55  41  59 S10       30.17S
SEDALIA        CLOUDY    60  43  53 S9        30.14S
OSAGE BEACH    PTCLDY    57  39  51 SE5       30.18S

$$
MOZ051-052-059>065-201000-
...EAST CENTRAL MISSOURI...

CITY           SKY/WX    TMP DP  RH WIND       PRES   REMARKS
ST LOUIS INTL  MOCLDY    55  41  59 CALM      30.20R
SPIRIT OF STL  CLEAR     47  43  86 CALM      30.19R
ST CHARLES     PTCLDY    51  46  83 CALM      30.19R

$$
MOZ072>076-082>087-097>100-106>115-201000-
...SOUTH CENTRAL AND SOUTHEAST MISSOURI...

CITY           SKY/WX    TMP DP  RH WIND       PRES   REMARKS
CAPE GIRARDEAU CLEAR     50  44  80 CALM      30.18R
FARMINGTON     CLEAR     46  41  81 CALM      30.21S
POPLAR BLUFF   CLEAR     50  43  77 CALM      30.17R
WEST PLAINS    MOCLDY    50  40  68 CALM      30.19F

$$



USA.gov is the U.S. government's official web portal to all federal, state and local government web resources and services.